User: anonymous   Login
Location: Fort Wayne
(41.1310°N, 85.1290°W)
Time: 07:38:04
(UTC-04:00)
Language:

Meteor 2-9 Rocket - Orbit

View from above orbital plane
View from above orbital plane
View from above satellite
View from above satellite

Ground track
Ground track

The orbit data is extracted from the following two-line orbital elements,

1 13719U 82116B   18116.21691302  .00000010  00000-0 -17344-5 0  9996
2 13719  81.2566  53.7137 0071494 178.9171 289.4282 14.14621698824625
Epoch (UTC): 26 April 2018 05:12:21
Eccentricity: 0.0071494
inclination: 81.2566°
perigee height: 792 km
apogee height: 895 km
right ascension of ascending node: 53.7137°
argument of perigee: 178.9171°
revolutions per day: 14.14621698
mean anomaly at epoch: 289.4282°
orbit number at epoch: 82462

The dashed part of the orbit path shows where the satellite is in the earth's shadow,  

DLR